STARLINK-35804, 66371

Orbit data source: Space-Track

STARLINK-35804, 66371 is a payload satellite owned by SpaceX/Seattle (US) in LEO that was launched on Thu, 06 Nov 2025 UTC via an FALCON 9 launch vehicle from the Air Force Western Test Range (AFWTR). Payload-class satellites include a variety of spacecraft equipped with specific instruments for various scientific and technological missions. These include communications satellites like Starlink; space stations such as the ISS; scientific satellites like the Hubble; Earth observation satellites from companies like Planet Labs, Umbra, and HawkEye 360; GPS; miniature CubeSats for education and research; and military/defense satellites.

Loading next visibility...
Identifier
66371, 2025-254Z
Orbit
LEO
Country
Flag of USUS
Related business
Manufacturer
SpaceX/Seattle
Mission
Operational Commercial Communications
Bus & Motor
STARLINK V2MO, Unknown motor
Mass
575 kg wet, ~530 kg dry
Launch date (UTC)
2025-11-06 (7 months ago)
Launch vehicle
FALCON 9
Launch site
Air Force Western Test Range (AFWTR)
Object type
Payload
Rocket body
Debris
Shape & HBR
Box + 2 Pan, 17.7 m
Radar Cross Section
36.964 m², Large (>1 m²)

Expand to show TLE details & history
Last TLE update: 2 days ago

TLE from 2 days ago
0 STARLINK-35804
1 66371U 25254Z   26170.29149717  .00008653  00000-0  30392-3 0  9999
2 66371  53.1581 118.1869 0001306 103.5720 256.5426 15.30201199 34569
Epoch: 2026-06-19T06:59Z
TLE epoch observation values (Epoch: 2026-06-19T06:59:45.355Z)
Latitude
-0.00004°
Longitude
105.72531°
Altitude
476.319 km
Speed
7.629 km/s
True Right ascension
07h 52m 44s
True Declination
0° 00' 00"
Sunlit
Object was in daylight at epoch
Visualization orbit readout
Latitude
Unknown
Longitude
Unknown
Altitude
Unknown
Speed
Unknown
Apparent Right ascension
Unknown
Apparent Declination
Unknown
Sunlit
N/A
Visualization observer readout
Local Sidereal Time
07:17:47
Azimuth
Unknown
Elevation
Unknown
Doppler factor
Unknown
Orbital elements
Apogee altitude
476.363 km
Perigee altitude
474.573 km
Semi-major axis
6,853.605 km
Eccentricity
0.00013
Inclination
53.1581°
RAAN
118.1869°
Arg. of periapsis
103.572°
True anomaly
256.52805°
Mean anomaly
256.5426°
Eccentric anomaly
256.53532°
Mean motion
3.82529 °/min
Orbital period
94.11 mins
BSTAR
0.00030392
Loading maneuver chart data...
Computing Atmospheric mass density...
Loading historical data...
Loading historical data...
Loading historical data...
Loading historical data...
Loading historical data...
Loading historical data...
Loading historical data...

Documentation

Showing up to 5 results
|